User: anonymous   Login
Location: Rodson Ranch
(38.7188°N, 119.3202°W)
Time: 09:13:53
(UTC+00:00)
Language:

Lacrosse 5 rocket - Orbit

View from above orbital plane
View from above orbital plane
View from above satellite
View from above satellite

Ground track
Ground track

The orbit data is extracted from the following two-line orbital elements,

1 28647U 05016B   21018.87266832  .00000190  00000-0  29144-4 0  9997
2 28647  56.9975  84.2837 0125361 169.9025 190.4577 15.06234773 92419
Epoch (UTC): 18 January 2021 20:56:38
Eccentricity: 0.0125361
inclination: 56.9975°
perigee height: 461 km
apogee height: 634 km
right ascension of ascending node: 84.2837°
argument of perigee: 169.9025°
revolutions per day: 15.06234773
mean anomaly at epoch: 190.4577°
orbit number at epoch: 9241

The dashed part of the orbit path shows where the satellite is in the earth's shadow,  

DLR